Weather History for Indianapolis, IN

Change the Weather History Date:

Saturday, June 22, 2013

  Actual Average (KEYE) Record (KEYE)
Temperature  
Mean Temperature 80 °F 74 °F  
Max Temperature 89 °F 83 °F 90 °F (2002)
Min Temperature 70 °F 65 °F 55 °F (2001)
Degree Days  
Heating Degree Days 0 0  
Month to date heating degree days 12  
Since 1 June heating degree days 12  
Since 1 July heating degree days 5346  
Cooling Degree Days 14 9  
Month to date cooling degree days 155  
Year to date cooling degree days 239  
Since 1 June cooling degree days 155  
Growing Degree Days 30 (Base 50)    
Moisture  
Dew Point 65 °F    
Average Humidity 65    
Maximum Humidity 82    
Minimum Humidity 42    
Precipitation  
Precipitation 0.00 in 0.16 in 0.94 in (2006)
Month to date precipitation 3.19  
Year to date precipitation 20.00  
Sea Level Pressure  
Sea Level Pressure 30.12 in    
Wind  
Wind Speed 6 mph (SW)    
Max Wind Speed 18 mph    
Max Gust Speed 28 mph    
Visibility 10 miles    
Events Thunderstorm    
T = Trace of Precipitation, MM = Missing Value Source: NWS Daily Summary

Daily Weather History Graph

Daily Weather History Graph

Search for Another Location

Airport:

Trip Planner

Search our weather history database for the weather conditions in past years. The results will help you decide how hot, cold, wet, or windy it might be!

Date:

Astronomy

Jun. 22, 2013 Rise Set
Actual Time 6:16 AM EDT 9:17 PM EDT
Civil Twilight 5:43 AM EDT 9:50 PM EDT
Nautical Twilight 5:01 AM EDT 10:32 PM EDT
Astronomical Twilight 4:12 AM EDT 11:21 PM EDT
Moon 8:31 PM EDT (6/22) 5:28 AM EDT (6/22)
Length of Visible Light 16h 06m
Length of Day
15h 01m
Waxing Gibbous, 99% of the Moon is Illuminated
Jun 22
Waxing Gibbous
Jun 23
Full
Jun 30
Last Quarter
Jul 8
New
Jul 15
First Quarter

Hourly Weather History & Observations

Time (EDT) Temp. Heat Index Dew Point Humidity Pressure Visibility Wind Dir Wind Speed Gust Speed Precip Events Conditions
12:15 AM 75.2 °F - 63.9 °F 68% 30.13 in 10.0 mi Calm Calm - N/A   Clear
12:35 AM 74.1 °F - 64.2 °F 71% 30.14 in 10.0 mi WNW 4.6 mph - N/A   Clear
12:55 AM 73.6 °F - 64.2 °F 72% 30.15 in 10.0 mi NW 4.6 mph - N/A   Clear
1:15 AM 73.2 °F - 64.6 °F 74% 30.15 in 10.0 mi Calm Calm - N/A   Clear
1:35 AM 72.7 °F - 64.8 °F 76% 30.16 in 10.0 mi Calm Calm - N/A   Clear
1:55 AM 72.1 °F - 64.4 °F 77% 30.15 in 10.0 mi Calm Calm - N/A   Clear
2:15 AM 71.6 °F - 64.4 °F 78% 30.14 in 10.0 mi Calm Calm - N/A   Clear
2:35 AM 70.9 °F - 64.6 °F 80% 30.14 in 10.0 mi Calm Calm - N/A   Clear
2:55 AM 70.2 °F - 64.4 °F 82% 30.13 in 10.0 mi Calm Calm - N/A   Clear
3:15 AM 70.2 °F - 64.4 °F 82% 30.12 in 10.0 mi Calm Calm - N/A   Scattered Clouds
3:35 AM 70.7 °F - 64.8 °F 81% 30.11 in 10.0 mi SSE 3.5 mph - N/A   Mostly Cloudy
3:55 AM 71.6 °F - 64.8 °F 79% 30.11 in 10.0 mi Calm Calm - N/A   Scattered Clouds
4:15 AM 71.2 °F - 64.8 °F 80% 30.10 in 10.0 mi South 3.5 mph - N/A   Clear
4:35 AM 71.6 °F - 64.9 °F 79% 30.10 in 10.0 mi South 4.6 mph - N/A   Clear
4:55 AM 72.7 °F - 65.3 °F 78% 30.10 in 10.0 mi South 5.8 mph - N/A   Clear
5:15 AM 73.4 °F - 65.1 °F 75% 30.10 in 10.0 mi SSW 8.1 mph - N/A   Clear
5:35 AM 73.8 °F - 64.8 °F 73% 30.11 in 10.0 mi SSW 8.1 mph - N/A   Clear
5:55 AM 73.9 °F - 64.4 °F 72% 30.11 in 10.0 mi SSW 6.9 mph - N/A   Mostly Cloudy
6:15 AM 73.9 °F - 64.0 °F 71% 30.12 in 10.0 mi SW 8.1 mph - N/A   Overcast
6:35 AM 73.8 °F - 64.4 °F 72% 30.12 in 10.0 mi SW 6.9 mph - N/A   Mostly Cloudy
6:55 AM 73.8 °F - 64.4 °F 72% 30.13 in 10.0 mi SSW 6.9 mph - N/A   Scattered Clouds
7:15 AM 74.3 °F - 64.6 °F 72% 30.13 in 10.0 mi SW 8.1 mph - N/A   Scattered Clouds
7:35 AM 75.0 °F - 65.1 °F 71% 30.13 in 10.0 mi SW 6.9 mph - N/A   Clear
7:55 AM 75.7 °F - 65.3 °F 70% 30.13 in 10.0 mi SSW 5.8 mph - N/A   Scattered Clouds
8:15 AM 76.3 °F - 65.5 °F 69% 30.14 in 10.0 mi SSW 6.9 mph - N/A   Scattered Clouds
8:35 AM 76.5 °F - 65.7 °F 69% 30.15 in 10.0 mi SSW 6.9 mph - N/A   Scattered Clouds
8:55 AM 76.8 °F - 65.7 °F 68% 30.14 in 10.0 mi SSW 9.2 mph - N/A   Clear
9:15 AM 77.4 °F - 66.2 °F 68% 30.14 in 10.0 mi SW 10.4 mph - N/A   Clear
9:35 AM 78.3 °F - 66.2 °F 66% 30.15 in 10.0 mi SW 10.4 mph - N/A   Clear
9:55 AM 80.8 °F 83.1 °F 66.7 °F 62% 30.16 in 10.0 mi SW 9.2 mph - N/A   Clear
10:15 AM 82.0 °F 84.3 °F 66.6 °F 59% 30.16 in 10.0 mi WSW 10.4 mph - N/A   Clear
10:35 AM 82.8 °F 85.1 °F 66.4 °F 58% 30.15 in 10.0 mi SW 13.8 mph 18.4 mph N/A   Clear
10:55 AM 83.7 °F 86.0 °F 66.6 °F 56% 30.14 in 10.0 mi WSW 10.4 mph - N/A   Clear
11:15 AM 84.6 °F 87.1 °F 66.7 °F 55% 30.14 in 10.0 mi WSW 12.7 mph 18.4 mph N/A   Clear
11:35 AM 84.7 °F 87.1 °F 66.6 °F 54% 30.15 in 10.0 mi WSW 9.2 mph - N/A   Clear
11:55 AM 85.6 °F 87.6 °F 65.8 °F 51% 30.15 in 10.0 mi WSW 12.7 mph - N/A   Clear
12:15 PM 86.7 °F 89.3 °F 66.7 °F 51% 30.16 in 10.0 mi SW 11.5 mph - N/A   Clear
12:35 PM 86.9 °F 89.3 °F 66.4 °F 50% 30.16 in 10.0 mi SW 6.9 mph - N/A   Scattered Clouds
12:55 PM 86.9 °F 88.9 °F 65.5 °F 49% 30.15 in 10.0 mi SW 9.2 mph - N/A   Scattered Clouds
1:15 PM 87.8 °F 90.0 °F 65.8 °F 48% 30.14 in 10.0 mi SSW 9.2 mph 16.1 mph N/A   Clear
1:35 PM 87.8 °F 89.7 °F 65.3 °F 47% 30.14 in 10.0 mi SW 11.5 mph 17.3 mph N/A   Clear
1:55 PM 88.7 °F 90.8 °F 65.7 °F 46% 30.14 in 10.0 mi SW 13.8 mph - N/A   Scattered Clouds
2:15 PM 89.1 °F 91.0 °F 65.3 °F 45% 30.13 in 10.0 mi SW 15.0 mph 20.7 mph N/A   Mostly Cloudy
2:35 PM 89.2 °F 91.3 °F 65.7 °F 45% 30.12 in 10.0 mi SW 9.2 mph - N/A   Scattered Clouds
2:55 PM 89.1 °F 91.0 °F 65.1 °F 45% 30.12 in 10.0 mi WSW 15.0 mph 20.7 mph N/A   Clear
3:15 PM 89.8 °F 91.0 °F 63.9 °F 42% 30.11 in 10.0 mi WSW 13.8 mph 20.7 mph N/A   Clear
3:35 PM 89.2 °F 91.3 °F 65.3 °F 45% 30.11 in 10.0 mi WNW 18.4 mph 27.6 mph N/A   Scattered Clouds
3:55 PM 83.1 °F 85.0 °F 65.5 °F 55% 30.09 in 10.0 mi WNW 11.5 mph 16.1 mph N/A   Scattered Clouds
4:15 PM 86.0 °F 87.6 °F 64.8 °F 49% 30.09 in 10.0 mi WNW 6.9 mph - N/A   Clear
4:35 PM 84.7 °F 85.6 °F 63.3 °F 48% 30.08 in 10.0 mi SW 10.4 mph - N/A   Clear
4:55 PM 84.0 °F 84.5 °F 62.1 °F 47% 30.09 in 10.0 mi SSW 11.5 mph - N/A Thunderstorm Clear
5:15 PM 81.5 °F 82.1 °F 60.8 °F 49% 30.08 in 10.0 mi South 10.4 mph - N/A Thunderstorm Clear
5:35 PM 78.1 °F - 62.6 °F 59% 30.08 in 10.0 mi South 13.8 mph - N/A   Clear
5:55 PM 75.7 °F - 63.5 °F 66% 30.07 in 10.0 mi South 11.5 mph 20.7 mph N/A   Clear
6:15 PM 75.7 °F - 64.6 °F 68% 30.06 in 10.0 mi SSE 12.7 mph - N/A   Clear
6:35 PM 75.7 °F - 64.4 °F 68% 30.07 in 10.0 mi SSE 11.5 mph - N/A   Clear
6:55 PM 75.7 °F - 63.1 °F 65% 30.07 in 10.0 mi South 10.4 mph 17.3 mph N/A   Clear
7:15 PM 75.9 °F - 63.5 °F 65% 30.08 in 10.0 mi SSW 9.2 mph - N/A   Clear
7:35 PM 76.5 °F - 63.7 °F 64% 30.08 in 10.0 mi SW 9.2 mph - N/A   Clear
7:55 PM 76.3 °F - 63.7 °F 65% 30.08 in 10.0 mi SSW 8.1 mph - N/A   Clear
8:15 PM 76.1 °F - 63.9 °F 66% 30.09 in 10.0 mi WSW 10.4 mph - N/A   Clear
8:35 PM 75.4 °F - 63.5 °F 66% 30.09 in 10.0 mi SW 9.2 mph - N/A   Clear
8:55 PM 75.2 °F - 63.5 °F 67% 30.10 in 10.0 mi WSW 5.8 mph - N/A   Clear
9:15 PM 74.8 °F - 63.5 °F 68% 30.10 in 10.0 mi SW 4.6 mph - N/A   Clear
9:35 PM 74.5 °F - 63.5 °F 68% 30.09 in 10.0 mi SSW 4.6 mph - N/A   Clear
9:55 PM 74.3 °F - 63.5 °F 69% 30.08 in 10.0 mi SSW 4.6 mph - N/A   Clear
10:15 PM 73.6 °F - 63.5 °F 71% 30.09 in 10.0 mi Calm Calm - N/A   Clear
10:35 PM 72.7 °F - 63.7 °F 73% 30.08 in 10.0 mi Calm Calm - N/A   Clear
10:55 PM 72.0 °F - 63.9 °F 76% 30.08 in 10.0 mi SE 4.6 mph - N/A   Clear
11:15 PM 72.0 °F - 63.7 °F 75% 30.07 in 10.0 mi Calm Calm - N/A   Clear
11:35 PM 71.8 °F - 63.9 °F 76% 30.07 in 10.0 mi East 4.6 mph - N/A   Clear
11:55 PM 70.7 °F - 63.9 °F 79% 30.08 in 10.0 mi SE 4.6 mph - N/A   Clear